timestamp,wind_dir_avg,wind_spd_max_dir,wind_spd_avg,wind_spd_gust,battery_voltage,lat,long
2020-01-17 00:04:01+00:00,30.0,37.0,1.05,1.45,12.57,47.59359,-54.27349
2020-01-17 00:14:01+00:00,29.0,35.0,1.93,2.43,12.57,47.59359,-54.27349
2020-01-17 00:24:01+00:00,37.0,37.0,2.88,3.5,12.57,47.59359,-54.27349
2020-01-17 00:34:01+00:00,28.0,26.0,2.73,3.28,12.57,47.59359,-54.27349
2020-01-17 00:44:01+00:00,58.0,50.0,2.59,3.25,12.57,47.59359,-54.27349
2020-01-17 00:54:01+00:00,42.0,43.0,3.63,4.24,12.57,47.59359,-54.27349
2020-01-17 01:04:01+00:00,43.0,44.0,4.12,4.6,12.57,47.59359,-54.27349
2020-01-17 01:14:01+00:00,37.0,43.0,4.27,5.28,12.57,47.59359,-54.27349
2020-01-17 01:24:01+00:00,34.0,27.0,4.42,5.21,12.57,47.59359,-54.27349
2020-01-17 01:34:01+00:00,30.0,39.0,3.47,4.24,12.57,47.59359,-54.27349
2020-01-17 01:44:01+00:00,14.0,18.0,3.05,3.52,12.57,47.59359,-54.27349
2020-01-17 01:54:01+00:00,22.0,18.0,3.46,3.86,12.57,47.59359,-54.27349
2020-01-17 02:04:01+00:00,21.0,32.0,4.07,4.57,12.57,47.59359,-54.27349
2020-01-17 02:14:01+00:00,40.0,43.0,4.16,4.69,12.49,47.59359,-54.27349
2020-01-17 02:24:01+00:00,34.0,41.0,4.65,5.92,12.49,47.59359,-54.27349
2020-01-17 02:34:01+00:00,61.0,56.0,3.16,3.77,12.49,47.59359,-54.27349
2020-01-17 02:44:01+00:00,39.0,43.0,2.34,2.87,12.49,47.59359,-54.27349
2020-01-17 02:54:01+00:00,80.0,78.0,3.84,4.8,12.49,47.59359,-54.27349
2020-01-17 03:04:01+00:00,98.0,105.0,3.82,5.31,12.49,47.59359,-54.27349
2020-01-17 03:14:01+00:00,84.0,85.0,4.67,5.49,12.49,47.59359,-54.27349
2020-01-17 03:24:01+00:00,87.0,86.0,4.63,5.45,12.49,47.59359,-54.27349
2020-01-17 03:34:01+00:00,83.0,69.0,4.05,4.85,12.49,47.59359,-54.27349
2020-01-17 03:44:01+00:00,85.0,87.0,4.3,5.4,12.49,47.59359,-54.27349
2020-01-17 03:54:01+00:00,76.0,70.0,4.4,5.97,12.49,47.59359,-54.27349
2020-01-17 04:04:01+00:00,71.0,67.0,6.39,7.13,12.49,47.59359,-54.27349
2020-01-17 04:14:01+00:00,74.0,66.0,5.92,6.81,12.49,47.59359,-54.27349
2020-01-17 04:24:01+00:00,89.0,80.0,5.01,6.81,12.49,47.59359,-54.27349
2020-01-17 04:34:01+00:00,118.0,146.0,3.86,5.88,12.49,47.59359,-54.27349
2020-01-17 04:44:01+00:00,114.0,119.0,3.83,6.19,12.49,47.59359,-54.27349
2020-01-17 04:54:01+00:00,119.0,114.0,4.22,6.61,12.49,47.59359,-54.27349
2020-01-17 05:04:01+00:00,124.0,142.0,4.81,6.59,12.49,47.59359,-54.27349
2020-01-17 05:14:01+00:00,121.0,81.0,4.25,6.99,12.49,47.59359,-54.27349
2020-01-17 05:24:01+00:00,118.0,114.0,4.7,6.83,12.49,47.59359,-54.27349
2020-01-17 05:34:01+00:00,110.0,112.0,3.73,6.56,12.49,47.59359,-54.27349
2020-01-17 05:44:01+00:00,101.0,93.0,4.19,6.28,12.49,47.59359,-54.27349
2020-01-17 05:54:01+00:00,94.0,97.0,4.22,6.5,12.49,47.59359,-54.27349
2020-01-17 06:04:01+00:00,90.0,74.0,4.31,5.61,12.49,47.59359,-54.27349
2020-01-17 06:14:01+00:00,95.0,109.0,4.65,6.27,12.41,47.59359,-54.27349
2020-01-17 06:24:01+00:00,104.0,88.0,4.47,5.98,12.41,47.59359,-54.27349
2020-01-17 06:34:01+00:00,99.0,110.0,4.43,6.16,12.41,47.59359,-54.27349
2020-01-17 06:44:01+00:00,87.0,88.0,6.18,7.58,12.41,47.59359,-54.27349
2020-01-17 06:54:01+00:00,83.0,77.0,7.44,9.18,12.41,47.59359,-54.27349
2020-01-17 07:04:01+00:00,78.0,77.0,8.67,9.98,12.41,47.59359,-54.27349
2020-01-17 07:14:01+00:00,81.0,82.0,8.65,10.14,12.41,47.59359,-54.27349
2020-01-17 07:24:01+00:00,81.0,86.0,9.45,10.85,12.41,47.59359,-54.27349
2020-01-17 07:34:01+00:00,78.0,78.0,9.78,11.06,12.41,47.59359,-54.27349
2020-01-17 07:44:01+00:00,77.0,84.0,10.51,11.9,12.41,47.59359,-54.27349
2020-01-17 07:54:01+00:00,75.0,66.0,10.99,13.1,12.41,47.59359,-54.27349
2020-01-17 08:04:01+00:00,79.0,75.0,10.58,12.12,12.41,47.59359,-54.27349
2020-01-17 08:14:01+00:00,59.0,61.0,11.56,12.75,12.41,47.59359,-54.27349
2020-01-17 08:24:01+00:00,63.0,62.0,12.09,14.12,12.41,47.59359,-54.27349
2020-01-17 08:34:01+00:00,70.0,70.0,11.44,13.21,12.41,47.59359,-54.27349
2020-01-17 08:44:01+00:00,68.0,72.0,11.39,12.46,12.41,47.59359,-54.27349
2020-01-17 08:54:01+00:00,65.0,69.0,11.66,15.08,12.41,47.59359,-54.27349
2020-01-17 09:04:01+00:00,62.0,68.0,12.84,16.99,12.41,47.59359,-54.27349
2020-01-17 09:14:01+00:00,62.0,71.0,12.36,14.15,12.41,47.59359,-54.27349
2020-01-17 09:24:01+00:00,61.0,70.0,13.91,18.07,12.41,47.59359,-54.27349
2020-01-17 09:34:01+00:00,61.0,67.0,15.49,18.91,12.41,47.59359,-54.27349
2020-01-17 09:44:01+00:00,68.0,71.0,16.95,19.96,12.41,47.59359,-54.27349
2020-01-17 09:54:01+00:00,64.0,71.0,16.48,19.78,12.41,47.59359,-54.27349
2020-01-17 10:04:01+00:00,62.0,64.0,18.14,21.08,12.41,47.59359,-54.27349
2020-01-17 10:14:01+00:00,69.0,63.0,18.49,20.73,12.41,47.59359,-54.27349
2020-01-17 10:24:01+00:00,64.0,61.0,17.69,20.87,12.41,47.59359,-54.27349
2020-01-17 10:34:01+00:00,63.0,67.0,16.19,20.27,12.41,47.59359,-54.27349
2020-01-17 10:44:01+00:00,60.0,67.0,15.36,19.61,12.41,47.59359,-54.27349
2020-01-17 10:54:01+00:00,61.0,60.0,18.29,21.41,12.41,47.59359,-54.27349
2020-01-17 11:04:01+00:00,60.0,58.0,18.72,21.35,12.41,47.59359,-54.27349
2020-01-17 11:14:01+00:00,64.0,66.0,17.84,20.59,12.41,47.59359,-54.27349
2020-01-17 11:24:01+00:00,63.0,67.0,19.24,20.73,12.41,47.59359,-54.27349
2020-01-17 11:34:01+00:00,63.0,60.0,17.78,21.11,12.41,47.59359,-54.27349
2020-01-17 11:44:01+00:00,64.0,63.0,16.98,19.23,12.41,47.59359,-54.27349
2020-01-17 11:54:01+00:00,59.0,60.0,16.65,19.96,12.41,47.59359,-54.27349
2020-01-17 12:04:01+00:00,60.0,58.0,18.39,20.81,12.41,47.59359,-54.27349
2020-01-17 12:14:01+00:00,64.0,65.0,20.22,24.0,12.33,47.59359,-54.27349
2020-01-17 12:24:01+00:00,63.0,60.0,19.48,23.53,12.33,47.59359,-54.27349
2020-01-17 12:34:01+00:00,58.0,58.0,17.66,20.93,12.33,47.59359,-54.27349
2020-01-17 12:44:01+00:00,59.0,54.0,19.29,21.78,12.33,47.59359,-54.27349
2020-01-17 12:54:01+00:00,56.0,63.0,18.59,21.42,12.33,47.59359,-54.27349
2020-01-17 13:04:01+00:00,54.0,50.0,21.3,24.41,12.33,47.59359,-54.27349
2020-01-17 14:14:01+00:00,55.0,53.0,22.72,27.8,12.33,47.59359,-54.27349
2020-01-17 14:24:01+00:00,56.0,57.0,25.9,31.99,12.33,47.59359,-54.27349
2020-01-17 14:34:01+00:00,56.0,59.0,23.8,28.16,12.33,47.59359,-54.27349
2020-01-17 14:44:01+00:00,56.0,58.0,22.5,26.61,12.33,47.59359,-54.27349
2020-01-17 14:54:01+00:00,54.0,63.0,23.74,28.63,12.33,47.59359,-54.27349
2020-01-17 15:04:01+00:00,55.0,48.0,22.54,27.3,12.33,47.59359,-54.27349
2020-01-17 19:14:01+00:00,41.0,51.0,26.14,29.9,12.33,47.59359,-54.27349
2020-01-17 19:24:01+00:00,39.0,36.0,23.36,29.62,12.33,47.59359,-54.27349
2020-01-17 19:34:01+00:00,38.0,34.0,27.27,35.2,12.33,47.59359,-54.27349
2020-01-17 19:44:01+00:00,39.0,38.0,26.67,31.33,12.33,47.59359,-54.27349
2020-01-17 19:54:01+00:00,35.0,38.0,23.1,29.08,12.33,47.59359,-54.27349
2020-01-17 20:04:01+00:00,31.0,41.0,23.26,30.21,12.33,47.59359,-54.27349
2020-01-17 22:14:01+00:00,21.0,28.0,24.41,28.74,12.33,47.59359,-54.27349
2020-01-17 22:24:01+00:00,22.0,32.0,26.2,32.96,12.33,47.59359,-54.27349
2020-01-17 22:34:01+00:00,11.0,12.0,22.1,26.43,12.33,47.59359,-54.27349
2020-01-17 22:44:01+00:00,10.0,1.0,23.33,28.17,12.33,47.59359,-54.27349
2020-01-17 22:54:01+00:00,17.0,23.0,23.83,31.66,12.33,47.59359,-54.27349
2020-01-17 23:04:01+00:00,15.0,10.0,23.57,30.31,12.33,47.59359,-54.27349
2020-01-17 23:14:01+00:00,11.0,7.0,20.99,25.62,12.33,47.59359,-54.27349
2020-01-17 23:24:01+00:00,8.0,4.0,21.09,25.96,12.33,47.59359,-54.27349
2020-01-17 23:34:01+00:00,7.0,8.0,22.58,26.17,12.33,47.59359,-54.27349
2020-01-17 23:44:01+00:00,9.0,18.0,25.29,31.63,12.33,47.59359,-54.27349
2020-01-17 23:54:01+00:00,10.0,359.0,21.72,27.23,12.33,47.59359,-54.27349
